Aérodrome :
LOGIN :

S'inscrire | Disclaimer

   EN    FR    IT 

 










Légende :    VFR   VFR Marginal   IFR   IFR Intensif   IFR Très Intensif
Visi : 
Plafond : 
>= 8 km
>= 3000ft
5 à 8 km
1000 à 3000 ft
1500m à 5 km
500 à 1000 ft
800 à 1500m
200 à 500 ft
< 800m
< 200 ft
Symboles :   Orages  Brouillard  Fortes neiges  Fortes précipitations  Vent > 20 kt
SIGMETs :   Divers  Orages  Givrage  Turbulence  Onde Orograph.  Cendres Volcan.







- Altitude de l'aérodrome : 885 ft
- Code IATA : BAS
- Voir les cartes d'approche


LFSB - Bale-Mulhouse

DERNIER METAR :
  • 192000Z 22002KT CAVOK 11/08 Q1013 NOSIG

METARs EXPIRÉS :
  • 191930Z 20002KT CAVOK 12/08 Q1013 NOSIG
  • 191900Z VRB02KT CAVOK 12/08 Q1013 NOSIG
  • 191830Z VRB02KT CAVOK 13/08 Q1013 NOSIG
  • 191800Z 18004KT CAVOK 14/07 Q1013 NOSIG
  • 191730Z VRB02KT CAVOK 16/08 Q1012 NOSIG

TAF TAF LFSB
Valide du 19 à 18h jusqu'au 20 à 18h UTC


191700Z 1918/2018 22004KT CAVOK
BECMG 2010/2012 29010KT
PROB40
TEMPO 2012/2016 32010G20KT BKN045
Météo : +33 3 89 90 31 11
Pas de NOTAMs connus pour ce terrain.



MET'MAP, la Météo Aéronautique d'un coup d'oeil ! - Copyright ORBIFLY Décembre 2007 - Disclaimer

ORBIFLY MET'MAP TEAM :

Programmation & Développement : Alexandra Zaïnal
Conception & Développement : Baudouin d'Aumeries
Co-Programmation & Développement : Marc-Olivier Méhu
Soutien technique & logistique : Manuel Goepfert

Contact : metmap@orbifly.com




SOURCES & CREDITS :

   NOAA